星链-3868 (STARLINK-3868 )

导读

STARLINK-3868是美国星链计划的卫星,星链是SpaceX打造的低轨卫星互联网星座。它于2022年5月14日发射,属于星链组网的批次卫星,运行在近地轨道,核心任务为提供全球范围宽带互联网服务,帮助覆盖偏远区域网络,推进星链星座的全球覆盖组网进程。

Basic Information
目录编号:
52649
目录名称:
STARLINK-3868
国际标识:
2022-052BD
轨道中心:
EARTH
卫星名称:
星链-3868
卫星全名:
星链-3868 (STARLINK-3868 )
卫星状态:
在轨 (已飞行1582 天)
发射日期:
2022-05-14 UTC
国别 :
美国 (US)
星等 :
--
This satellite is enrolled in the Space Conjunction Data Service (SCDS) and the current flight risk assessment level is: No High Risk
Orbit Information
数据来源 国际轨道数据
星历时间: 2026-09-12T06:13:40+0800
10小时前
查看轨道信息
半长轴: 6848.881km
偏心率: 0.0001186
轨道倾角: 53.159°
近地点辐角 93.816°
升交点赤经 130.727°
平近点角 266.298°
近地点: 469.931km
远地点: 471.557km
周期: 94.013分钟
每日圈数: 15.316989
Detailed Information
固有亮度:
5
最大亮度:
2.5
卫星平台:
Starlink v1.5
覆盖范围:
全球
运营商:
太空探索技术公司
运营商所在国:
美国
制造商(研发单位):
太空探索技术公司
制造商所在国:
美国
使用方式:
暂无
Satellite Introduction
星链(Starlink)计划是由太空探索技术公司(SpaceX)提出的一个巨型低轨卫星互联网星座项目,计划在2019年至2024年间在太空搭建由约1.2万颗卫星组成的“星链”网络,其中1584颗将部署在地球上空550千米处的近地轨道,并从2020年开始工作。该卫星仍在工作。
2D Orbit Map
3D Orbit Map
Orbit Altitude Analysis Chart
Orbit Inclination Analysis Chart
Orbit Comprehensive Analysis Chart
View Comprehensive Chart
Conjunction Data List
Event ID Objects TCA Miss Dist (km) Collision Risk Probability Collision Risk Index (CRI) Action
CDM_260914-185505-264906-412021
2026-09-14T
18:55:06+0000
2.279 km
极远距离
1.664004E-6 低风险 0.39
CDM_260914-150005-264906-412021
2026-09-14T
15:00:09+0000
2.582 km
极远距离
1.322777E-6 低风险 0.37
CDM_260913-110004-431605-264921
OBJECT G (44316)
2026-09-13T
11:00:44+0000
3.000 km
极远距离
1.161725E-6 低风险 0.36
CDM_260912-172605-264906-840321
2026-09-12T
17:26:35+0000
2.954 km
极远距离
1.152406E-6 低风险 0.36
Miss Distance Evolution Trend with All Objects
Collision Probability Evolution Trend with All Objects